Voltar ao catálogo

STARLINK-32130

AtivoComunicaçõesVLEO
NORAD 60585·PAYLOAD·🇺🇸 United States

Lançado Aug 20, 2024 de Cape Canaveral Space Force Station

Loading…

Próximas Passagens (próximas 24 horas)

TLE

AtualizadoSource: CelesTrak SupGP

Época: Sep 15, 2026, 02:09 UTC

1 60585C 24150C   26258.09006944  .00008676  00000+0  25633-3 0  2587
2 60585  53.1601 146.9945 0001387  85.7590 270.5756 15.34385546    10

Acompanhe STARLINK-32130 em tempo real com AllMySat

Download on the App Store